Home   Weather   New York   Past weeks

Flag for USA Past Weather in New York, New York, USA — Yesterday and Last 2 Weeks

Now
77 °F

Sunny.


Feels Like: 79 °F
Forecast: 67 / 82 °F
Wind: No wind

Location: New York City - Central Park

Current Time: Jul 20, 2018 at 10:36:34 am

Latest Report: Jul 20, 2018 at 9:51 am


Visibility: 10 mi

Pressure: 30.16 "Hg

Humidity: 64%

Dew Point: 64 °F

Location of New YorkLocation

Past Weather in New York — Graph

°F

New York Temperature Yesterday

Maximum temperature yesterday: 82 °F (at 1:51 pm)
Minimum temperature yesterday: 67 °F (at 3:51 am)
Average temperature yesterday: 74 °F

High & Low Weather Summary for the Past Weeks

 TemperatureHumidityPressure
High92 °F (Jul 10, 3:51 pm)100% (Jul 12, 6:34 am)30.38 "Hg (Jul 12, 6:34 am)
Low63 °F (Jul 7, 4:51 am)27% (Jul 10, 3:51 pm)29.75 "Hg (Jul 17, 1:51 pm)
Average76 °F63%30.07 "Hg
* Reported Jul 5 8:51 am — Jul 20 8:51 am, New York. Weather by CustomWeather, © 2018

Note: Actual official high and low records may vary slightly from our data, if they occured in-between our weather recording intervals... More about our weather records

Advertising

New York Weather History for the Previous 24 Hours

Scroll right to see more
 ConditionsComfort  
Time TempWeatherWind HumidityBarometerVisibility
8:51 am
Fri, Jul 20
75 °FSunny.No wind66%30.16 "Hg10 mi
7:51 am72 °FSunny.No wind76%30.16 "Hg10 mi
6:51 am69 °FSunny.No wind87%30.15 "Hg8 mi
5:51 am69 °FSunny.No wind87%30.14 "Hg10 mi
4:51 am69 °FClear.No wind84%30.13 "Hg10 mi
3:51 am71 °FClear.No wind78%30.13 "Hg10 mi
2:51 am70 °FClear.5 mph76%30.13 "Hg10 mi
1:51 am71 °FClear.No wind68%30.13 "Hg10 mi
12:51 am71 °FClear.No wind66%30.13 "Hg10 mi
11:51 pm
Thu, Jul 19
71 °FClear.3 mph63%30.12 "Hg10 mi
10:51 pm72 °FClear.No wind59%30.11 "Hg10 mi
9:51 pm73 °FClear.3 mph55%30.11 "Hg10 mi
8:51 pm73 °FClear.No wind51%30.09 "Hg10 mi
7:51 pm75 °FSunny.3 mph50%30.08 "Hg10 mi
6:51 pm77 °FSunny.3 mph45%30.07 "Hg10 mi
5:51 pm78 °FSunny.N/A43%30.07 "Hg10 mi
4:51 pm79 °FSunny.N/A44%30.07 "Hg10 mi
3:51 pm81 °FSunny.No wind32%30.07 "Hg10 mi
2:51 pm81 °FSunny.No wind33%30.08 "Hg10 mi
1:51 pm82 °FSunny.No wind29%30.09 "Hg10 mi
12:51 pm80 °FSunny.3 mph34%30.10 "Hg10 mi
11:51 am78 °FSunny.3 mph33%30.11 "Hg10 mi
10:51 am75 °FSunny.N/A40%30.11 "Hg10 mi
Weather by CustomWeather, © 2018

See weather overview